Regional Weather Roundup
Issued by NWS

Home | Current Version | Previous Version | Text Only | Print | Product List | Glossary Off
Versions: 1 2 3 4 5 6 7 8 9 10 11 12 13 14 15 16 17 18 19 20 21 22 23 24 25 26 27 28 29 30 31 32 33 34 35 36 37 38 39 40 41 42 43 44 45 46 47 48 49 50

000
ASUS43 KLSX 260507
RWRMO

WEATHER SUMMARY FOR MISSOURI
NATIONAL WEATHER SERVICE SPRINGFIELD MO
1100 PM CST THU DEC 25 2014

NOTE: "FAIR" INDICATES FEW OR NO CLOUDS BELOW 12,000 FEET WITH NO
       SIGNIFICANT WEATHER AND/OR OBSTRUCTIONS TO VISIBILITY.
       CURRENT SKY AND/OR WEATHER CONDITIONS ARE NOT AVAILABLE FOR
       CHILLICOTHE AND FARMINGTON.

MOZ001>031-035>038-043-044-053-054-260600-
...NORTHERN AND WESTERN MISSOURI...

CITY           SKY/WX    TMP DP  RH WIND       PRES   REMARKS
KANSAS CTY INT PTCLDY    48  30  49 S22       29.78R
KANSAS C DTWN  PTCLDY    50  30  46 S13       29.81R
LEE`S SUMMIT   PTCLDY    47  30  51 S14       29.81S
ST JOSEPH      CLEAR     45  31  58 S10       29.78R
CHILLICOTHE      N/A     46  31  55 S12       29.85R
KIRKSVILLE     PTCLDY    43  31  62 S13       29.87R

$$
MOZ066>068-077>081-088>096-101>105-260600-
...SOUTHWEST MISSOURI...

CITY           SKY/WX    TMP DP  RH WIND       PRES   REMARKS
SPRINGFIELD    CLOUDY    45  30  55 S15       29.91R
JOPLIN         MOCLDY    48  29  47 S17G28    29.89R

$$
MOZ032>034-039>042-045>050-055>058-069>072-260600-
...CENTRAL MISSOURI...

CITY           SKY/WX    TMP DP  RH WIND       PRES   REMARKS
COLUMBIA       PTCLDY    44  31  60 S12       29.92R
JEFFERSON CITY CLEAR     46  31  55 SE9       29.94R
ROLLA          PTCLDY    43  33  68 S17G23    29.94R
SEDALIA        MOCLDY    46  30  53 S14       29.88R
WHITEMAN AFB   MOCLDY    45  31  56 S15       29.86R
WARRENSBURG    PTCLDY    45  30  57 S10       29.85S
OSAGE BEACH    MOCLDY    46  28  49 S12       29.93R

$$
MOZ051-052-059>065-260600-
...EAST CENTRAL MISSOURI...

CITY           SKY/WX    TMP DP  RH WIND       PRES   REMARKS
ST LOUIS INTL  MOCLDY    45  35  68 S12       30.00R
SPIRIT OF STL  MOCLDY    44  35  70 S3        29.98R
ST CHARLES     PTCLDY    40  36  86 S9        30.00R

$$
MOZ072>076-082>087-097>100-106>115-260600-
...SOUTH CENTRAL AND SOUTHEAST MISSOURI...

CITY           SKY/WX    TMP DP  RH WIND       PRES   REMARKS
CAPE GIRARDEAU MOCLDY    41  35  79 S13       30.11R
FARMINGTON     PTCLDY    43  36  75 SE17G26   30.03S
POPLAR BLUFF   MOCLDY    45  34  65 S10       30.08S
WEST PLAINS    PTCLDY    42  34  73 S9        30.01R

$$



USA.gov is the U.S. government's official web portal to all federal, state and local government web resources and services.